Other Public Products
Issued by NWS Charleston, SC

Current Version | Previous Version | Text Only | Print | Product List | Glossary Off
Versions: 1 2 3 4 5 6 7 8 9 10 11 12 13 14 15 16 17 18 19 20 21 22 23 24 25 26 27 28 29 30 31 32 33 34 35 36 37 38 39 40 41 42 43 44 45 46 47 48 49 50
000 FPUS82 KCHS 040412 OPUCHS TEST...KCHS/KSAV Gateway Observations...TEST National Weather Service Charleston SC 1100 PM EST SAT DEC 03 2016 NOTE: "fair" indicates few or no clouds below 12,000 feet with no significant weather and/or obstructions to visibility. SCZ050-WAZ558-NCZ071-TXZ119-213-PAZ071-DCZ001-FLZ074-172-MI076- NYZ176-178-MAZ016-IL014-TNZ027-NJZ106-GAZ044-MD014-040500- ...Gateway Observations for Charleston International... CITY SKY/WX TMP DP RH WIND PRES REMARKS Chas Airport CLOUDY 51 38 60 NE7 30.27F Seattle LGT RAIN 45 44 97 SW14G20 30.13F Charlotte LGT RAIN 47 33 58 NE5 30.27S Dallas DFW CLOUDY 48 45 89 N9 29.99F Dallas Love CLOUDY 49 47 93 N7 30.00F Philladelphia CLOUDY 47 29 49 NW12G21 30.20R Wash National MOCLDY 42 29 59 VRB7G17 30.29R Baltimore CLOUDY 41 30 65 W10 30.26R Miami MOCLDY 75 65 70 E14 30.09S Detroit CLOUDY 36 30 79 CALM 30.30R Newark CLOUDY 43 27 53 NW18 30.16R Laguardia MOCLDY 45 28 51 NW21G29 30.14R J F K MOCLDY 44 25 47 NW13G25 30.16R Boston Logan PTCLDY 36 24 62 NW13 30.04S WCI 27 Ft. Lauderdale CLOUDY 75 63 66 E14 30.09R Chicago O`Hare CLOUDY 31 26 82 S5 30.28F WCI 26 Chicago Midway CLOUDY 32 24 72 S5 30.28F WCI 27 Houston Bush CLOUDY 52 50 93 E14 29.83F Houston Hobby MOCLDY 54 52 93 E10 29.85F Nashville LGT RAIN 40 36 86 NE7 30.25F WCI 35 Atlanta LGT RAIN 48 42 80 E8 30.19R $$ GAZ044-118-TXZ119-213-NCZ071-DCZ001-MDZ014-506-PAZ021-071-NJZ106- NYZ176-178-MAZ106-OHZ011-021-055-MIZ076-KYZ091-ILZ014-INZ047- MNZ060-040500- ...Gateway Observations for Savannah International... CITY SKY/WX TMP DP RH WIND PRES REMARKS Savannah Arpt CLOUDY 54 43 66 E7 30.25F Atlanta LGT RAIN 48 42 80 E8 30.19R Charlotte LGT RAIN 47 33 58 NE5 30.27S Dallas DFW CLOUDY 48 45 89 N9 29.99F Houston Bush CLOUDY 52 50 93 E14 29.83F Wash National MOCLDY 42 29 59 VRB7G17 30.29R Wash Dulles CLOUDY 40 27 59 W12 30.29R WCI 33 Baltimore CLOUDY 41 30 65 W10 30.26R Philadelphia CLOUDY 47 29 49 NW12G21 30.20R Newark CLOUDY 43 27 53 NW18 30.16R Laguardia MOCLDY 45 28 51 NW21G29 30.14R J F K MOCLDY 44 25 47 NW13G25 30.16R Boston PTCLDY 36 24 62 NW13 30.04S WCI 27 Pittsburg CLOUDY 37 28 70 W5 30.28S WCI 33 Akron CLOUDY 36 25 64 W5 30.30R WCI 32 Cleveland CLOUDY 38 25 59 SW7 30.32S WCI 33 Cincinnati CLOUDY 37 29 72 CALM 30.28F Columbus CLOUDY 35 31 83 E3 30.30S Detroit CLOUDY 36 30 79 CALM 30.30R Chicago O`Hare CLOUDY 31 26 82 S5 30.28F WCI 26 Minneapolis CLOUDY 32 24 72 S12 30.14F WCI 23 Indianapolis CLOUDY 33 27 78 E3 30.28F $$

USA.gov is the U.S. government's official web portal to all federal, state and local government web resources and services.